Tracking 20232 objects as of 21-Jan-2020
HD Live streaming from Space Station
objects crossing your sky now

DELTA 1 DEB

Track DELTA 1 DEB now!
10-day predictions


NORAD ID: 12171
Int'l Code: 1978-026L
Perigee: 861.8 km
Apogee: 917.3 km
Inclination: 99.0 °
Period: 102.6 minutes
Semi major axis: 7260 km
RCS: 0.8162 m2 (medium)
Launch date: March 5, 1978
Source: United States (US)
Launch site: AIR FORCE WESTERN TEST RANGE (AFWTR)

Note: This is SATELLITE DEBRIS
aabbcc
Your satellite tracking list
Your tracking list is empty




NASA's NSSDC Master Catalog

Two Line Element Set (TLE):
1 12171U 78026L   20020.93384352 -.00000126 +00000-0 -52104-4 0  9993
2 12171 099.0391 346.0150 0038207 101.2452 329.3770 14.03289047994303
Source of the keplerian elements: AFSPC